DW4238 Weather Reports


time (UTC)temp
C
wind
direction
speed
KPH
gust
KPH
rain 1hr
cm
rain 24hr
cm
rain mn
cm
humidity
%
barometer
mb
20260510052022 22 150 9.7 16.1 0.00 0.00 0.00 80 1010.6
20260510051541 22 130 9.7 16.1 0.00 0.00 0.00 80 1010.6
20260510051024 22 143 9.7 16.1 0.00 0.00 0.00 79 1010.4
20260510050531 23 147 12.9 16.1 0.00 0.00 0.00 79 1010.2
20260510050031 23 149 9.7 14.5 0.00 0.00 0.00 79 1010.3
20260510045534 23 134 8.0 16.1 0.00 0.00 0.00 79 1010.3
20260510044602 23 151 9.7 14.5 0.00 0.00 0.00 79 1010.3
20260510044048 23 142 8.0 14.5 0.00 0.00 0.00 79 1010.3
20260510043027 23 135 9.7 19.3 0.00 0.00 0.00 79 1010.5
20260510042639 23 113 11.3 20.9 0.00 0.00 0.00 79 1010.5
20260510042119 23 134 9.7 20.9 0.00 0.00 0.00 80 1010.4
20260510041546 23 141 12.9 17.7 0.00 0.00 0.00 82 1010.4
20260510040631 23 126 4.8 11.3 0.00 0.00 0.00 82 1010.2
20260510040028 23 138 6.4 8.0 0.00 0.00 0.00 82 1010.0
20260510035539 23 138 4.8 11.3 0.00 0.00 0.00 82 1009.9
20260510034559 23 140 9.7 12.9 0.00 0.00 0.00 82 1010.0
20260510034052 23 128 6.4 11.3 0.00 0.00 0.00 82 1009.9
20260510033048 23 136 8.0 14.5 0.00 0.00 0.00 82 1009.8
20260510032552 23 148 9.7 14.5 0.00 0.00 0.00 81 1009.8
20260510031558 23 144 9.7 12.9 0.00 0.00 0.00 81 1009.7
20260510031101 24 141 6.4 11.3 0.00 0.00 0.00 80 1009.5
20260510030612 24 134 4.8 11.3 0.00 0.00 0.00 79 1009.4
20260510030029 24 132 4.8 14.5 0.00 0.00 0.00 79 1009.2
20260510025539 24 134 6.4 14.5 0.00 0.00 0.00 79 1009.2
20260510024604 25 207 4.8 6.4 0.00 0.00 0.00 77 1009.1
20260510024051 25 207 4.8 6.4 0.00 0.00 0.00 76 1009.0
20260510023550 25 209 3.2 6.4 0.00 0.00 0.00 75 1009.1
20260510023020 25 209 4.8 6.4 0.00 0.00 0.00 74 1008.9
20260510022631 25 210 4.8 6.4 0.00 0.00 0.00 74 1008.8
20260510021607 25 211 3.2 4.8 0.00 0.00 0.00 74 1008.7
20260510021110 26 211 3.2 4.8 0.00 0.00 0.00 72 1008.7
20260510020620 26 211 3.2 4.8 0.00 0.00 0.00 72 1008.8
20260510020039 26 211 3.2 4.8 0.00 0.00 0.00 71 1008.6
20260510015549 26 211 3.2 6.4 0.00 0.00 0.00 71 1008.6
20260510014615 26 247 3.2 6.4 0.00 0.00 0.00 70 1008.5
20260510014027 26 248 1.6 6.4 0.00 0.00 0.00 70 1008.4
20260510013631 26 248 0.0 0.0 0.00 0.00 0.00 69 1008.3
20260510013040 27 248 0.0 0.0 0.00 0.00 0.00 68 1008.2
20260510012544 27 248 0.0 0.0 0.00 0.00 0.00 67 1008.3
20260510011605 27 248 0.0 4.8 0.00 0.00 0.00 67 1008.0
20260510011056 27 248 3.2 4.8 0.00 0.00 0.00 68 1008.0
20260510010057 27 190 4.8 6.4 0.00 0.00 0.00 67 1007.9
20260510005600 27 190 3.2 6.4 0.00 0.00 0.00 68 1007.8
20260510005110 27 190 4.8 8.0 0.00 0.00 0.00 67 1007.9
20260510004537 28 190 4.8 8.0 0.00 0.00 0.00 66 1007.8
20260510004044 28 185 3.2 4.8 0.00 0.00 0.00 65 1007.8
20260510003108 28 213 0.0 0.0 0.00 0.00 0.00 64 1007.6
20260510002550 28 213 0.0 0.0 0.00 0.00 0.00 65 1007.5
20260510001611 28 213 1.6 6.4 0.00 0.00 0.00 63 1007.4
20260510001101 28 213 3.2 6.4 0.00 0.00 0.00 64 1007.3
20260510000613 27 213 3.2 6.4 0.00 0.00 0.00 64 1007.3
20260510000038 27 214 3.2 14.5 0.00 0.00 0.00 64 1007.3
20260509235528 27 214 6.4 17.7 0.00 0.00 0.00 65 1007.4
20260509234550 26 196 14.5 17.7 0.00 0.00 0.00 67 1007.7
20260509234103 26 196 12.9 19.3 0.00 0.00 0.00 68 1007.7
20260509233606 25 234 14.5 20.9 0.00 0.00 0.00 68 1007.7
20260509233034 25 207 16.1 32.2 0.00 0.00 0.00 67 1008.0
20260509232536 26 207 19.3 32.2 0.00 0.00 0.00 65 1007.9
20260509231543 27 223 19.3 30.6 0.00 0.00 0.00 59 1007.9
20260509231050 28 211 16.1 24.1 0.00 0.00 0.00 60 1008.0
20260509230117 30 22 1.6 9.7 0.00 0.00 0.00 67 1007.4
20260509225600 30 28 1.6 4.8 0.00 0.00 0.00 68 1007.3
20260509225111 31 27 3.2 6.4 0.00 0.00 0.00 67 1007.3
20260509224527 31 26 3.2 6.4 0.00 0.00 0.00 66 1007.1
20260509224040 31 27 4.8 9.7 0.00 0.00 0.00 66 1007.1
20260509223040 31 9 4.8 8.0 0.00 0.00 0.00 64 1006.9
20260509222550 31 333 4.8 8.0 0.00 0.00 0.00 64 1006.9
20260509222053 31 313 4.8 8.0 0.00 0.00 0.00 62 1006.8
20260509221523 31 315 4.8 12.9 0.00 0.00 0.00 61 1006.7
20260509221024 31 319 8.0 12.9 0.00 0.00 0.00 62 1006.6
20260509220050 31 61 4.8 9.7 0.00 0.00 0.00 64 1006.5
20260509215555 31 65 6.4 9.7 0.00 0.00 0.00 64 1006.6
20260509214616 32 22 6.4 9.7 0.00 0.00 0.00 64 1006.9
20260509214027 32 26 6.4 20.9 0.00 0.00 0.00 63 1006.9
20260509213531 32 68 9.7 20.9 0.00 0.00 0.00 62 1006.9
20260509213138 31 337 4.8 17.7 0.00 0.00 0.00 62 1006.9
20260509212630 31 283 3.2 12.9 0.00 0.00 0.00 61 1007.1
20260509212111 31 284 8.0 12.9 0.00 0.00 0.00 60 1007.3
20260509211537 31 258 4.8 12.9 0.00 0.00 0.00 61 1007.3
20260509211040 31 310 4.8 12.9 0.00 0.00 0.00 61 1007.4
20260509210108 31 265 8.0 14.5 0.00 0.00 0.00 61 1007.4
20260509205552 31 258 9.7 12.9 0.00 0.00 0.00 61 1007.4
20260509205103 31 333 4.8 14.5 0.00 0.00 0.00 61 1007.3
20260509204521 31 325 6.4 17.7 0.00 0.00 0.00 62 1007.4
20260509204036 31 287 6.4 17.7 0.00 0.00 0.00 62 1007.5
20260509203100 31 288 6.4 14.5 0.00 0.00 0.00 63 1007.7
20260509202548 31 355 8.0 17.7 0.00 0.00 0.00 62 1007.8
20260509201546 30 319 11.3 17.7 0.00 0.00 0.00 68 1008.0
20260509201031 30 180 3.2 12.9 0.00 0.00 0.00 68 1007.9
20260509200030 30 272 6.4 11.3 0.00 0.00 0.00 67 1008.0
20260509195543 30 334 6.4 9.7 0.00 0.00 0.00 68 1008.1
20260509194608 30 20 3.2 12.9 0.00 0.00 0.00 69 1008.1
20260509194118 30 5 4.8 12.9 0.00 0.00 0.00 68 1008.1
20260509193521 30 320 4.8 8.0 0.00 0.00 0.00 69 1008.2
20260509193034 30 355 4.8 12.9 0.00 0.00 0.00 71 1008.3
20260509192539 30 252 6.4 12.9 0.00 0.00 0.00 69 1008.4
20260509191540 30 9 4.8 12.9 0.00 0.00 0.00 72 1008.4
20260509191111 30 254 6.4 12.9 0.00 0.00 0.00 71 1008.5
20260509190613 29 262 4.8 12.9 0.00 0.00 0.00 75 1008.7
20260509190044 29 319 8.0 12.9 0.00 0.00 0.00 73 1008.8
20260509185547 28 302 4.8 8.0 0.00 0.00 0.00 74 1008.9
20260509185053 28 311 0.0 9.7 0.00 0.00 0.00 76 1008.9
20260509184521 28 311 8.0 9.7 0.00 0.00 0.00 74 1008.9
20260509184026 28 317 3.2 12.9 0.00 0.00 0.00 76 1009.0
20260509183048 28 278 6.4 11.3 0.00 0.00 0.00 76 1009.1
20260509182558 28 257 3.2 11.3 0.00 0.00 0.00 76 1009.1
20260509181557 28 360 4.8 8.0 0.00 0.00 0.00 77 1009.3
20260509181042 28 26 3.2 9.7 0.00 0.00 0.00 80 1009.4
20260509180106 28 351 1.6 9.7 0.00 0.00 0.00 81 1009.6
20260509175608 28 319 8.0 9.7 0.00 0.00 0.00 80 1009.7
20260509175114 27 64 3.2 9.7 0.00 0.00 0.00 80 1009.7
20260509174526 27 315 4.8 14.5 0.00 0.00 0.00 80 1009.8
20260509174029 27 320 9.7 14.5 0.00 0.00 0.00 80 1009.8
20260509173640 27 295 6.4 14.5 0.00 0.00 0.00 81 1009.8
20260509173046 28 223 4.8 12.9 0.00 0.00 0.00 80 1009.9
20260509172531 27 247 4.8 12.9 0.00 0.00 0.00 80 1009.9
20260509171552 27 241 6.4 11.3 0.00 0.00 0.00 79 1009.9
20260509171109 27 205 6.4 9.7 0.00 0.00 0.00 80 1009.9
20260509170108 27 237 3.2 11.3 0.00 0.00 0.00 82 1009.9
20260509165558 27 238 3.2 11.3 0.00 0.00 0.00 82 1010.0
20260509164559 27 226 3.2 11.3 0.00 0.00 0.00 84 1009.8
20260509164059 26 229 0.0 8.0 0.00 0.00 0.00 84 1009.9
20260509163609 26 229 4.8 8.0 0.00 0.00 0.00 84 1010.0
20260509162528 26 248 1.6 11.3 0.00 0.00 0.00 85 1010.0
20260509161554 26 253 8.0 12.9 0.00 0.00 0.00 85 1010.0
20260509161045 26 261 6.4 12.9 0.00 0.00 0.00 85 1010.0
20260509160106 26 226 8.0 14.5 0.00 0.00 0.00 86 1009.8
20260509155618 26 161 8.0 12.9 0.00 0.00 0.00 88 1009.6
20260509155057 26 214 9.7 17.7 0.00 0.00 0.00 88 1009.6
20260509154528 25 181 12.9 22.5 0.00 0.00 0.00 89 1009.5
20260509154041 25 209 16.1 22.5 0.00 0.00 0.00 89 1009.2
20260509153040 25 200 12.9 16.1 0.00 0.00 0.00 92 1009.4
20260509152548 25 215 11.3 17.7 0.00 0.00 0.00 92 1009.5
20260509152053 24 200 12.9 17.7 0.00 0.00 0.00 93 1009.5
20260509151522 24 186 14.5 17.7 0.00 0.00 0.00 93 1009.4
20260509151026 24 194 11.3 16.1 0.00 0.00 0.00 94 1009.5
20260509150042 24 204 8.0 16.1 0.00 0.00 0.00 94 1009.7
20260509145553 23 238 12.9 16.1 0.00 0.00 0.00 94 1009.6
20260509144613 23 213 6.4 9.7 0.00 0.00 0.00 94 1009.6
20260509144104 23 222 4.8 6.4 0.00 0.00 0.00 95 1009.7
20260509143608 23 188 4.8 11.3 0.00 0.00 0.00 95 1009.7
20260509143039 23 225 6.4 11.3 0.00 0.00 0.00 94 1009.6
20260509142551 23 204 6.4 11.3 0.00 0.00 0.00 95 1009.6
20260509141610 23 211 0.0 8.0 0.00 0.00 0.00 95 1009.6
20260509141114 23 211 4.8 8.0 0.00 0.00 0.00 95 1009.7
20260509140119 23 182 6.4 9.7 0.00 0.00 0.00 95 1009.7
20260509135621 23 136 3.2 9.7 0.00 0.00 0.00 95 1009.5
20260509134622 23 178 3.2 6.4 0.00 0.00 0.00 95 1009.6
20260509134112 23 177 1.6 6.4 0.00 0.00 0.00 95 1009.8
20260509133623 23 171 4.8 8.0 0.00 0.00 0.00 95 1009.6
20260509133024 23 144 3.2 8.0 0.00 0.00 0.00 95 1009.6
20260509132537 23 128 3.2 8.0 0.00 0.00 0.00 95 1009.8
20260509131558 23 167 1.6 8.0 0.00 0.00 0.00 94 1009.8
20260509131110 23 167 3.2 8.0 0.00 0.00 0.00 94 1009.8
20260509130614 23 167 0.0 4.8 0.00 0.00 0.00 94 1009.6
20260509130042 23 163 0.0 0.0 0.00 0.00 0.00 94 1009.7
20260509125545 23 163 0.0 0.0 0.00 0.00 0.00 94 1009.6
20260509124619 23 145 0.0 0.0 0.00 0.00 0.00 94 1009.8
20260509124104 23 145 0.0 0.0 0.00 0.00 0.00 94 1009.8
20260509123614 23 145 0.0 0.0 0.00 0.00 0.00 94 1009.7
20260509123043 23 145 0.0 0.0 0.00 0.00 0.00 94 1009.6
20260509122548 23 145 0.0 0.0 0.00 0.00 0.00 94 1009.5
20260509121610 23 145 0.0 0.0 0.00 0.00 0.00 94 1009.2
20260509121026 23 145 0.0 0.0 0.00 0.00 0.00 94 1009.0
20260509120536 23 145 0.0 3.2 0.00 0.00 0.00 94 1009.1
20260509120137 23 145 0.0 4.8 0.00 0.00 0.00 94 1009.1
20260509115531 23 145 3.2 4.8 0.00 0.23 0.00 94 1009.2
20260509114554 23 145 0.0 1.6 0.00 0.23 0.00 94 1009.6
20260509114105 23 145 0.0 3.2 0.00 0.23 0.00 94 1009.7
20260509113609 23 145 0.0 3.2 0.00 0.23 0.00 94 1009.7
20260509113037 23 145 1.6 6.4 0.00 0.23 0.00 94 1009.9
20260509112541 23 145 3.2 8.0 0.00 0.23 0.00 94 1009.9
20260509111553 23 142 3.2 6.4 0.00 0.23 0.00 94 1009.9
20260509111036 23 144 0.0 0.0 0.00 0.23 0.00 94 1009.9
20260509105607 23 144 0.0 0.0 0.00 0.23 0.00 94 1009.7
20260509105118 23 144 0.0 0.0 0.00 0.23 0.00 94 1009.7
20260509104537 23 144 0.0 0.0 0.00 0.23 0.00 94 1009.6
20260509104025 23 144 0.0 0.0 0.00 0.23 0.00 94 1009.2
20260509103126 23 144 0.0 0.0 0.00 0.23 0.00 94 1009.4
20260509102618 23 144 0.0 0.0 0.00 0.23 0.00 94 1009.5
20260509102021 23 144 0.0 0.0 0.00 0.23 0.00 94 1009.5
20260509101109 23 143 0.0 0.0 0.00 0.23 0.00 94 1009.7
20260509100620 23 143 0.0 0.0 0.00 0.23 0.00 94 1009.7
20260509100042 23 143 0.0 0.0 0.00 0.23 0.00 94 1009.6
20260509095531 23 146 0.0 0.0 0.00 0.23 0.00 94 1009.4
20260509094553 23 150 0.0 0.0 0.00 0.23 0.00 94 1009.0
20260509094102 23 154 0.0 3.2 0.00 0.23 0.00 94 1008.9
20260509093604 23 155 0.0 3.2 0.00 0.23 0.00 94 1008.8
20260509093035 23 155 0.0 4.8 0.00 0.23 0.00 94 1008.8
20260509092546 23 155 1.6 8.0 0.00 0.23 0.00 94 1008.8
20260509091542 23 155 4.8 9.7 0.00 0.23 0.00 94 1008.9
20260509091053 23 150 6.4 9.7 0.00 0.23 0.00 94 1008.7
20260509090113 23 150 0.0 3.2 0.00 0.23 0.00 94 1009.0
20260509085522 23 150 0.0 4.8 0.00 0.23 0.00 94 1009.0
20260509085127 23 150 3.2 12.9 0.00 0.23 0.00 94 1008.9
20260509084531 23 148 6.4 12.9 0.00 0.23 0.00 94 1008.9
20260509084047 23 148 8.0 12.9 0.00 0.23 0.00 94 1009.1
20260509083049 23 173 6.4 9.7 0.00 0.23 0.00 93 1009.3
20260509082554 23 189 6.4 9.7 0.00 0.23 0.00 93 1009.4
20260509082106 23 196 0.0 6.4 0.00 0.23 0.00 93 1009.6
20260509081523 23 150 0.0 0.0 0.00 0.23 0.00 93 1009.8
20260509081035 23 150 0.0 0.0 0.00 0.23 0.00 93 1009.9
20260509080053 23 150 0.0 3.2 0.00 0.23 0.00 93 1009.7
20260509075605 23 150 0.0 0.0 0.00 0.23 0.00 93 1009.7
20260509074606 23 150 0.0 0.0 0.00 0.23 0.00 93 1009.5
20260509074117 23 150 0.0 1.6 0.00 0.23 0.00 93 1009.5
20260509073620 23 150 0.0 4.8 0.00 0.23 0.00 93 1009.4
20260509073047 23 150 1.6 8.0 0.00 0.23 0.00 93 1009.5
20260509072551 23 150 3.2 8.0 0.00 0.23 0.00 93 1009.5
20260509071611 23 150 4.8 11.3 0.00 0.23 0.00 93 1009.5
20260509071027 23 148 4.8 11.3 0.00 0.23 0.00 93 1009.5
20260509070027 23 163 8.0 14.5 0.00 0.23 0.00 93 1009.3
20260509065541 23 159 6.4 14.5 0.00 0.23 0.00 93 1009.1
20260509065024 23 144 9.7 12.9 0.00 0.23 0.00 93 1009.1
20260509064545 23 163 6.4 12.9 0.00 0.23 0.00 93 1009.2
20260509064028 23 149 6.4 11.3 0.00 0.23 0.00 92 1009.2
20260509063545 23 159 8.0 11.3 0.00 0.23 0.00 92 1009.1
20260509063044 23 150 6.4 11.3 0.00 0.23 0.00 92 1009.2
20260509062524 23 155 6.4 12.9 0.00 0.23 0.00 92 1009.1
20260509062032 23 144 8.0 16.1 0.00 0.23 0.00 92 1009.1
20260509061531 23 150 9.7 16.1 0.00 0.23 0.00 92 1009.0
20260509061041 23 139 6.4 17.7 0.00 0.23 0.00 92 1009.1
20260509060525 23 146 12.9 17.7 0.00 0.23 0.00 92 1009.2
20260509060022 23 161 11.3 20.9 0.00 0.23 0.00 92 1009.2
20260509055532 23 148 17.7 20.9 0.00 0.23 0.00 92 1009.4
20260509055022 23 144 12.9 19.3 0.00 0.23 0.00 92 1009.4
20260509054534 23 161 12.9 19.3 0.00 0.23 0.00 92 1009.5
20260509054025 23 153 11.3 16.1 0.00 0.23 0.00 92 1009.4
20260509053553 23 153 11.3 19.3 0.00 0.23 0.00 92 1009.4
20260509053033 23 144 12.9 20.9 0.00 0.23 0.00 92 1009.4
20260509052522 23 143 14.5 22.5 0.00 0.23 0.00 92 1009.3